Satellite-Ground Cal/Val Region Overpasses Predictions

Prediction of Satellite NPP Overpassing Cal/Val Region: PacNW

Region Location: (Latitude: 10.00, Longitude: 139.50) to (Latitude: 22.70, Longitude: 165.60).

Table of predicted overpasses for the next 14.0 days since TLE Epoch: 6/17/2013
Interval Starting Time Starting Location Ending Time Ending Location
1 06/18/2013 03:04:21 ( 10.05, 153.47) 06/18/2013 03:07:56 ( 22.68, 150.46)
2 06/18/2013 15:36:13 ( 22.70, 150.74) 06/18/2013 15:39:49 ( 10.02, 147.72)
3 06/19/2013 02:45:18 ( 10.03, 158.24) 06/19/2013 02:48:53 ( 22.65, 155.23)
4 06/19/2013 15:17:11 ( 22.66, 155.49) 06/19/2013 15:20:46 ( 10.04, 152.48)
5 06/20/2013 02:26:16 ( 10.01, 163.01) 06/20/2013 02:29:52 ( 22.69, 159.98)
6 06/20/2013 14:58:09 ( 22.69, 160.26) 06/20/2013 15:01:45 ( 10.01, 157.23)
7 06/21/2013 02:09:51 ( 19.26, 165.59) 06/21/2013 02:10:49 ( 22.67, 164.75)
8 06/21/2013 03:48:44 ( 10.05, 142.38) 06/21/2013 03:52:10 ( 22.14, 139.51)
9 06/21/2013 14:39:07 ( 22.65, 165.01) 06/21/2013 14:42:42 ( 10.03, 162.00)
10 06/21/2013 16:20:37 ( 22.65, 139.63) 06/21/2013 16:20:46 ( 22.12, 139.50)
11 06/22/2013 03:29:42 ( 10.03, 147.15) 06/22/2013 03:33:17 ( 22.65, 144.14)
12 06/22/2013 16:01:35 ( 22.67, 144.40) 06/22/2013 16:05:10 ( 10.05, 141.39)
13 06/23/2013 03:10:39 ( 10.01, 151.92) 06/23/2013 03:14:15 ( 22.69, 148.89)
14 06/23/2013 15:42:32 ( 22.69, 149.17) 06/23/2013 15:46:08 ( 10.01, 146.14)
15 06/24/2013 02:51:38 ( 10.04, 156.67) 06/24/2013 02:55:13 ( 22.67, 153.66)
16 06/24/2013 15:23:31 ( 22.65, 153.92) 06/24/2013 15:27:06 ( 10.03, 150.91)
17 06/25/2013 02:32:36 ( 10.02, 161.43) 06/25/2013 02:36:11 ( 22.64, 158.43)
18 06/25/2013 15:04:28 ( 22.68, 158.68) 06/25/2013 15:08:03 ( 10.06, 155.68)
19 06/26/2013 02:14:18 ( 12.65, 165.59) 06/26/2013 02:17:09 ( 22.68, 163.18)
20 06/26/2013 03:55:03 ( 10.01, 140.82) 06/26/2013 03:56:40 ( 15.71, 139.50)
21 06/26/2013 14:45:26 ( 22.70, 163.45) 06/26/2013 14:49:02 ( 10.02, 160.43)
22 06/27/2013 03:36:02 ( 10.05, 145.58) 06/27/2013 03:39:37 ( 22.67, 142.57)
23
